Temp
61 61 61 61 61 61 61 61 61 61 61 61 62 61 61 61 60 58 49 57 59 64 64 59 58 56 55 50 53 50 35 31 37 41 43 51 48 53 57 53 58 63 60 63 66
61 61 61 61 61 61 61 61 61 61 61 61 61 61 61 61 53 51 60 63 63 64 57 53 50 52 45 46 47 41 31 36 44 44 43 48 48 48 48 49 53 59 62 64 64
61 60 60 60 60 60 60 60 60 60 61 61 61 61 60 59 48 50 63 62 63 62 58 56 54 50 42 45 43 41 35 43 45 48 49 47 47 49 45 43 48 49 56 61 60
59 59 59 59 59 60 60 60 61 60 60 60 61 61 60 53 33 53 62 62 63 61 56 53 48 41 38 37 45 36 44 45 46 48 47 44 48 45 46 47 53 54 57 57 58
59 58 59 58 59 60 60 60 60 60 60 60 60 60 54 45 47 60 62 61 59 56 52 48 44 41 35 39 40 37 40 45 46 46 45 47 43 43 45 50 52 56 58 55 56
58 58 58 58 58 59 59 59 60 59 59 60 60 60 48 37 59 62 59 57 56 52 49 49 45 46 40 39 36 40 41 40 43 43 44 42 42 44 46 51 50 53 54 56 55
58 58 57 58 58 58 59 59 59 59 59 59 60 56 46 44 57 57 59 54 55 53 47 50 49 42 41 36 43 41 34 38 39 41 40 44 37 38 47 50 48 50 52 54 56
57 57 57 57 58 58 58 58 58 58 59 59 59 50 41 57 53 56 56 53 55 55 52 51 50 44 39 41 38 32 31 26 38 42 43 41 29 42 48 46 45 48 51 52 54
57 57 57 57 57 58 58 58 58 59 59 59 50 46 41 58 51 54 53 49 50 52 51 56 50 38 37 27 24 26 16 25 31 42 41 38 33 41 47 45 44 45 48 50 52
57 57 57 58 57 57 58 58 58 56 56 59 56 40 48 44 49 51 52 52 47 46 44 41 37 31 32 27 14 15 19 27 27 36 39 36 35 40 43 46 44 44 45 46 48
57 57 57 57 57 58 53 47 41 41 44 39 40 41 45 48 51 49 52 48 46 41 27 36 30 26 26 29 32 30 27 25 31 38 35 33 34 37 42 42 42 45 46 47 47
57 57 57 57 57 57 50 41 41 42 32 45 45 45 48 47 40 45 52 40 32 24 37 23 24 34 37 37 33 30 27 27 33 39 36 32 32 38 40 41 43 45 45 47 47
56 56 57 56 56 50 44 43 49 46 31 41 44 43 43 44 39 40 47 42 28 25 26 27 32 39 35 32 29 29 27 27 28 34 35 32 28 33 40 42 44 45 48 46 46
56 56 56 56 49 46 41 48 49 45 20 30 38 41 44 43 36 49 49 42 35 24 29 29 35 34 32 29 33 25 36 34 30 28 23 33 18 30 38 37 40 43 44 46 48
56 56 56 56 45 41 45 49 46 40 10 34 36 48 44 38 40 42 49 42 32 27 28 27 31 30 27 31 35 29 37 31 32 27 26 25 23 25 36 31 32 37 39 39 44
56 55 55 50 44 44 47 45 40 20 9 20 34 33 28 35 38 42 42 44 42 33 31 30 38 35 33 38 38 37 29 30 29 27 17 20 19 17 23 28 32 35 38 40 40
54 54 51 49 40 45 43 37 22 12 25 19 23 30 28 27 32 34 32 30 26 18 17 24 25 36 37 29 35 31 19 10 13 12 11 21 22 19 28 32 32 33 35 38 39
54 51 47 46 42 43 39 26 13 11 10 29 29 29 24 29 27 29 29 24 32 26 21 6 14 21 36 33 27 25 24 18 10 14 16 23 18 20 31 35 34 35 36 38 35
53 44 41 41 43 40 31 15 15 17 29 26 26 15 13 28 23 21 23 25 29 27 15 13 14 33 37 37 34 24 21 30 21 15 15 12 19 30 30 29 30 31 34 35 37
45 42 39 43 41 36 24 21 16 30 31 28 13 20 6 13 20 15 20 28 29 30 32 22 17 22 29 35 33 25 31 18 19 10 7 15 15 14 20 23 26 27 29 32 36
45 36 40 43 39 29 20 13 15 31 33 25 22 13 21 16 26 14 20 29 30 30 32 26 23 21 31 26 24 24 22 22 26 22 14 13 12 23 21 24 24 25 28 29 31
41 31 41 42 27 26 16 14 31 29 33 29 28 26 20 25 24 14 19 24 33 27 22 29 26 20 22 35 36 30 24 23 19 15 18 19 14 25 24 26 26 25 27 28 30
35 35 41 41 22 16 17 19 24 28 26 27 24 29 30 22 19 24 24 35 35 28 23 30 19 15 21 28 32 24 27 28 26 26 16 11 14 26 25 25 26 25 26 27 28
36 30 32 32 28 24 16 17 17 28 29 29 28 29 27 18 26 19 25 32 34 31 40 35 26 23 18 22 27 22 24 25 23 15 18 16 17 20 21 22 24 25 26 27 27
36 31 32 24 23 27 28 24 19 17 28 29 24 26 22 14 20 16 26 28 33 34 31 25 7 22 24 23 28 26 22 22 22 22 17 19 18 20 22 22 23 25 26 26 27
32 30 31 27 31 29 30 26 21 22 25 24 21 27 27 16 25 22 25 26 25 27 27 27 9 17 12 27 28 24 25 23 22 24 22 24 20 25 25 25 24 24 25 25 25
38 37 35 32 29 26 27 28 26 28 29 31 28 26 26 28 28 30 30 30 28 24 24 19 9 6 10 21 24 16 22 21 23 25 23 20 24 26 24 23 23 24 25 25 26
MSLP
1024.98 1024.84 1024.73 1024.53 1024.37 1024.14 1023.90 1023.65 1023.42 1023.19 1022.92 1022.64 1022.31 1022.06 1021.63 1021.25 1020.88 1020.47 1020.67 1021.14 1020.75 1020.18 1019.59 1019.31 1018.89 1018.70 1018.29 1018.52 1018.25 1018.33 1019.02 1018.38 1017.54 1016.83 1016.04 1015.33 1014.90 1013.91 1013.73 1012.64 1011.09 1009.98 1009.50 1009.81 1010.08
1025.12 1024.93 1024.78 1024.58 1024.51 1024.28 1024.03 1023.75 1023.42 1023.18 1022.93 1022.65 1022.42 1022.04 1021.52 1021.15 1021.21 1021.15 1021.21 1020.98 1020.79 1020.42 1020.20 1019.98 1019.64 1019.35 1019.26 1019.09 1018.87 1018.98 1019.01 1018.48 1017.70 1017.54 1016.95 1016.53 1016.03 1015.47 1014.48 1013.59 1012.01 1011.42 1011.08 1010.82 1010.42
1025.04 1025.03 1024.87 1024.63 1024.49 1024.26 1024.03 1023.77 1023.48 1023.16 1022.86 1022.63 1022.36 1022.01 1021.51 1021.20 1021.22 1021.41 1021.15 1021.10 1020.94 1020.72 1020.61 1020.34 1020.10 1020.14 1019.99 1019.70 1019.40 1019.13 1019.00 1018.74 1018.11 1017.36 1017.15 1016.94 1016.19 1015.96 1015.47 1014.30 1013.23 1013.35 1012.52 1012.17 1011.31
1025.24 1025.17 1024.92 1024.69 1024.47 1024.22 1023.86 1023.58 1023.25 1023.09 1022.87 1022.59 1022.33 1022.01 1021.28 1021.04 1021.95 1021.70 1021.25 1021.19 1020.97 1020.69 1020.79 1020.64 1020.58 1020.67 1020.64 1020.57 1020.09 1019.91 1019.19 1018.74 1018.28 1017.89 1017.35 1016.88 1016.58 1015.63 1015.53 1014.13 1013.95 1013.33 1013.28 1012.52 1012.01
1025.35 1025.22 1025.01 1024.74 1024.52 1024.08 1023.71 1023.52 1023.25 1023.02 1022.82 1022.62 1022.25 1021.83 1021.47 1021.53 1021.44 1021.21 1021.19 1021.03 1021.02 1021.02 1020.92 1020.99 1021.02 1020.99 1021.16 1021.03 1020.68 1020.14 1019.52 1018.94 1018.40 1018.06 1017.53 1017.04 1016.60 1016.21 1014.22 1014.16 1013.96 1013.00 1012.51 1012.23 1012.20
1025.31 1025.14 1024.94 1024.65 1024.39 1024.01 1023.71 1023.48 1023.17 1022.90 1022.69 1022.55 1022.31 1022.10 1022.01 1021.91 1021.11 1021.06 1021.17 1021.14 1021.03 1021.32 1021.43 1021.16 1021.33 1021.18 1021.31 1021.26 1021.16 1020.34 1019.87 1019.13 1018.33 1017.80 1017.43 1017.00 1016.20 1016.12 1014.43 1013.69 1013.31 1013.29 1012.13 1011.63 1011.64
1025.21 1024.96 1024.82 1024.57 1024.21 1023.89 1023.50 1023.28 1022.96 1022.71 1022.48 1022.37 1022.30 1022.26 1022.12 1021.88 1021.26 1021.21 1021.23 1021.39 1021.21 1021.18 1021.37 1021.37 1021.43 1021.75 1021.67 1021.57 1021.07 1020.89 1020.11 1019.20 1018.15 1017.19 1016.90 1016.24 1015.91 1014.25 1012.97 1013.20 1012.87 1012.41 1012.43 1011.21 1010.93
1025.05 1024.90 1024.71 1024.35 1024.04 1023.71 1023.38 1023.01 1022.76 1022.47 1022.25 1022.15 1022.13 1022.27 1021.81 1021.24 1021.21 1021.29 1021.25 1021.23 1021.14 1021.16 1021.21 1021.17 1021.30 1021.70 1021.86 1021.70 1021.30 1021.02 1020.71 1019.38 1017.26 1016.58 1015.81 1015.70 1013.38 1012.80 1013.21 1013.25 1012.86 1012.30 1011.81 1011.14 1009.91
1025.04 1024.86 1024.60 1024.22 1023.87 1023.50 1023.16 1022.77 1022.51 1022.24 1022.15 1022.10 1022.48 1022.39 1021.88 1021.34 1021.56 1021.58 1021.44 1021.50 1021.39 1021.21 1021.03 1020.90 1021.21 1021.86 1022.01 1022.28 1022.14 1021.51 1021.08 1019.54 1017.44 1016.06 1015.58 1015.30 1013.60 1013.41 1012.91 1012.99 1012.60 1012.11 1011.40 1010.67 1010.20
1025.14 1024.90 1024.58 1024.13 1023.79 1023.31 1022.87 1022.36 1022.18 1022.27 1022.06 1021.84 1022.11 1022.86 1022.32 1022.34 1022.10 1021.80 1021.38 1021.33 1021.50 1021.48 1021.38 1021.55 1021.96 1022.36 1022.49 1022.67 1022.36 1021.82 1021.00 1019.41 1017.71 1015.94 1015.63 1014.97 1013.81 1013.03 1013.11 1012.84 1011.90 1011.58 1011.06 1010.66 1010.24
1025.02 1024.86 1024.65 1024.24 1023.86 1023.31 1022.72 1022.54 1023.10 1023.21 1023.09 1023.33 1023.37 1023.23 1022.87 1022.75 1021.93 1021.90 1021.45 1021.39 1021.61 1022.06 1022.49 1022.44 1022.72 1022.28 1022.00 1021.92 1021.51 1021.00 1020.12 1018.61 1016.46 1015.78 1015.67 1014.56 1013.15 1012.41 1012.27 1011.84 1011.16 1010.69 1010.41 1010.08 1009.86
1025.05 1024.86 1024.59 1024.41 1024.11 1023.58 1023.16 1023.96 1024.92 1025.18 1024.48 1023.74 1023.50 1023.47 1023.19 1023.11 1022.72 1022.13 1021.58 1021.99 1022.56 1023.00 1022.78 1023.17 1022.32 1021.09 1021.06 1020.91 1020.69 1020.06 1018.99 1017.26 1015.40 1014.87 1014.88 1013.69 1011.70 1011.46 1011.05 1010.57 1009.99 1009.61 1009.54 1009.44 1009.47
1024.78 1024.76 1024.45 1024.41 1024.28 1024.53 1024.66 1025.08 1025.06 1024.97 1025.06 1024.19 1023.78 1023.65 1023.51 1023.33 1023.06 1022.35 1021.90 1022.20 1022.72 1023.36 1023.32 1023.21 1021.39 1020.70 1020.65 1020.13 1019.74 1018.67 1017.84 1016.47 1015.33 1014.24 1014.06 1013.09 1010.35 1009.94 1009.32 1009.07 1008.94 1008.90 1008.80 1008.84 1008.76
1024.78 1024.75 1024.53 1024.43 1024.72 1024.64 1025.33 1025.24 1025.02 1025.07 1025.56 1025.24 1024.19 1023.80 1023.53 1023.01 1023.04 1022.18 1022.03 1022.59 1022.80 1023.31 1023.17 1022.59 1021.12 1020.69 1020.16 1019.50 1018.76 1017.44 1016.21 1015.79 1015.24 1014.70 1013.54 1012.79 1010.68 1009.90 1008.97 1008.76 1008.98 1008.79 1009.01 1008.43 1008.27
1024.38 1024.49 1024.66 1024.52 1025.08 1025.27 1025.76 1025.36 1025.04 1025.34 1026.24 1025.81 1024.65 1023.86 1023.88 1023.96 1023.61 1022.41 1022.01 1022.36 1022.81 1023.22 1023.84 1022.41 1021.03 1020.32 1019.77 1018.69 1017.98 1016.94 1015.97 1015.51 1014.76 1014.46 1014.11 1012.85 1012.84 1010.85 1009.86 1010.52 1010.80 1010.48 1010.09 1009.50 1008.92
1024.30 1024.33 1024.65 1024.93 1025.42 1025.88 1025.70 1025.49 1025.59 1026.51 1027.53 1026.73 1025.63 1025.18 1025.21 1024.80 1024.22 1023.31 1022.64 1022.52 1022.26 1022.95 1023.09 1022.44 1020.98 1020.45 1019.24 1018.05 1017.43 1016.55 1016.02 1014.35 1014.01 1014.24 1014.29 1013.35 1013.57 1012.76 1012.68 1012.90 1011.46 1010.34 1009.75 1009.59 1009.18
1024.28 1024.39 1024.67 1025.17 1026.03 1025.88 1025.79 1026.05 1027.23 1027.96 1028.87 1028.60 1027.60 1026.98 1026.76 1026.46 1025.53 1024.82 1024.27 1023.99 1024.34 1024.42 1024.12 1023.07 1021.46 1019.89 1019.12 1018.46 1017.11 1016.98 1016.47 1015.72 1014.94 1014.77 1014.51 1013.80 1014.07 1013.18 1013.64 1012.99 1012.61 1011.56 1010.09 1009.11 1008.94
1024.40 1024.58 1025.45 1025.68 1026.03 1026.05 1026.09 1026.97 1028.82 1029.82 1029.46 1029.02 1028.56 1028.15 1028.11 1027.61 1027.04 1026.20 1025.73 1025.61 1025.55 1025.80 1025.95 1025.57 1022.52 1020.63 1019.23 1018.78 1018.20 1017.15 1017.30 1017.18 1016.24 1015.52 1014.77 1013.97 1014.20 1014.07 1014.27 1013.93 1013.11 1012.03 1010.48 1009.03 1008.91
1024.23 1025.05 1025.65 1026.11 1026.13 1026.09 1026.75 1028.91 1030.15 1030.02 1029.54 1029.46 1029.28 1029.46 1029.47 1028.82 1028.47 1027.62 1026.97 1026.60 1026.39 1026.36 1026.83 1025.99 1023.72 1021.01 1019.78 1018.92 1018.61 1017.63 1017.48 1016.90 1016.41 1015.53 1015.56 1014.72 1015.06 1014.60 1015.00 1014.40 1013.77 1012.26 1010.66 1009.25 1009.33
1024.36 1025.07 1025.89 1026.02 1026.09 1026.53 1027.74 1030.03 1030.58 1029.95 1029.53 1029.43 1030.17 1030.40 1031.00 1030.07 1029.27 1028.87 1027.91 1026.74 1026.58 1026.37 1026.41 1026.14 1024.62 1021.62 1020.26 1019.63 1018.93 1018.57 1017.90 1017.11 1016.61 1016.08 1015.84 1015.59 1016.47 1016.97 1016.04 1014.95 1014.56 1013.76 1012.58 1011.21 1010.52
1024.29 1025.50 1025.96 1025.86 1026.12 1027.30 1029.59 1030.66 1030.66 1029.83 1029.40 1029.63 1029.98 1030.69 1030.73 1030.56 1029.87 1029.65 1028.40 1026.91 1026.37 1026.14 1026.00 1025.93 1025.35 1021.98 1020.53 1020.09 1019.60 1018.57 1018.34 1018.01 1017.09 1017.71 1017.70 1017.14 1017.80 1018.50 1017.90 1016.95 1016.20 1015.46 1014.15 1012.92 1012.01
1024.36 1025.87 1026.06 1025.93 1027.23 1028.75 1030.17 1030.57 1030.24 1029.82 1029.52 1029.43 1029.54 1029.92 1030.26 1030.17 1030.02 1029.75 1028.58 1027.01 1026.14 1026.11 1026.30 1025.84 1025.19 1023.53 1021.71 1020.43 1019.99 1020.23 1019.95 1019.19 1018.59 1019.09 1018.71 1018.34 1018.46 1018.98 1019.02 1018.13 1017.30 1016.41 1015.36 1014.52 1013.68
1024.42 1025.69 1026.20 1026.02 1027.90 1029.80 1030.45 1030.82 1030.44 1029.76 1029.64 1029.61 1029.53 1029.65 1029.57 1029.88 1030.14 1029.27 1028.07 1026.31 1025.95 1026.21 1026.10 1025.79 1025.48 1024.44 1022.11 1021.11 1020.38 1020.48 1020.45 1019.76 1019.23 1019.18 1019.85 1019.89 1019.51 1019.65 1019.42 1018.68 1018.11 1017.23 1016.42 1015.73 1015.11
1023.99 1025.67 1026.82 1026.81 1027.57 1028.46 1029.85 1030.32 1030.34 1029.76 1029.50 1029.36 1029.37 1029.43 1029.55 1029.60 1029.54 1029.22 1028.13 1026.52 1026.00 1026.00 1025.59 1025.69 1025.91 1025.72 1024.82 1023.46 1022.69 1021.94 1021.52 1020.97 1020.42 1020.25 1020.56 1020.76 1020.59 1019.94 1019.81 1019.31 1018.83 1018.04 1017.30 1016.69 1016.19
1023.60 1025.26 1025.89 1027.00 1027.46 1027.91 1028.39 1029.10 1029.70 1029.56 1029.46 1029.25 1029.45 1029.26 1029.46 1029.86 1029.55 1029.09 1027.97 1027.00 1026.29 1026.39 1026.31 1026.80 1027.50 1026.82 1025.14 1023.95 1023.45 1022.86 1022.63 1022.09 1021.21 1021.31 1021.14 1021.37 1021.35 1021.27 1020.95 1020.11 1019.78 1019.11 1018.09 1017.34 1016.83
1023.54 1025.04 1026.03 1026.42 1026.37 1027.15 1027.70 1028.10 1028.45 1028.79 1028.92 1028.98 1029.06 1028.65 1028.94 1029.16 1028.63 1028.50 1028.23 1027.94 1027.50 1027.26 1027.39 1027.79 1028.16 1027.96 1026.32 1024.17 1023.77 1023.30 1023.02 1022.87 1022.39 1021.80 1021.48 1021.44 1021.96 1022.34 1021.90 1021.10 1020.11 1020.10 1019.45 1019.05 1018.81
1023.19 1024.14 1024.50 1025.90 1026.14 1026.69 1026.52 1026.72 1027.09 1027.51 1028.03 1027.78 1027.98 1028.30 1028.24 1027.84 1027.98 1028.04 1028.20 1028.28 1028.28 1028.65 1028.59 1028.91 1029.39 1029.37 1027.70 1025.66 1024.37 1024.45 1023.91 1023.83 1023.64 1022.99 1022.72 1022.22 1022.69 1022.70 1022.44 1022.11 1021.74 1021.34 1021.01 1020.62 1020.25
Wind_Speed
7 11 12 11 13 13 14 15 15 15 15 16 17 17 19 20 20 4 7 5 8 17 15 7 9 7 7 2 3 3 3 3 5 3 7 14 12 7 12 8 11 10 8 6 3
5 10 11 11 13 14 13 13 13 13 14 14 15 16 18 19 4 6 3 7 11 15 11 9 10 10 5 3 4 2 3 5 4 8 12 14 11 10 10 18 7 7 13 13 8
7 9 9 11 13 13 12 11 13 13 15 15 15 15 18 13 2 2 4 7 11 11 6 8 6 5 3 5 3 4 5 6 10 17 12 13 17 6 9 6 6 11 17 13 7
7 9 11 12 11 12 14 15 13 14 14 15 15 15 20 2 4 1 4 6 12 12 6 6 6 6 3 4 6 6 9 10 9 13 18 16 12 13 12 15 11 16 13 11 6
5 8 10 11 12 13 13 13 13 13 14 14 14 15 7 5 3 4 2 9 7 8 7 5 5 5 4 5 7 6 6 9 11 15 13 17 13 13 25 14 12 18 17 12 6
6 9 11 11 12 12 14 14 14 13 13 13 12 11 2 3 2 5 4 3 3 4 7 6 5 5 5 5 5 5 9 14 11 16 15 19 22 16 21 20 19 14 22 18 8
8 10 11 12 11 13 14 15 14 14 13 12 9 2 2 5 3 5 4 3 4 2 3 6 6 6 7 6 7 9 16 16 17 18 14 16 18 27 28 21 23 21 18 23 18
8 11 11 11 13 14 14 13 13 13 12 8 4 1 2 0 2 4 6 6 6 5 2 3 3 4 3 5 6 6 4 7 3 4 8 8 20 18 15 12 18 19 20 19 24
8 8 12 12 12 14 15 14 13 10 6 4 1 1 3 1 4 4 4 4 6 5 6 4 2 2 5 3 5 3 5 9 14 8 8 8 21 6 8 6 14 10 13 18 16
9 10 11 11 11 14 16 15 6 5 4 4 2 5 5 5 6 7 4 1 1 6 4 2 2 2 3 2 6 6 8 9 14 7 8 16 20 17 15 16 17 12 9 8 12
10 9 10 11 12 15 10 3 7 6 8 2 2 2 4 8 5 3 3 4 2 4 4 3 4 12 11 10 15 16 18 22 25 22 21 22 25 24 17 14 19 18 16 13 9
9 9 10 11 10 16 4 6 3 5 4 1 3 3 3 2 4 8 3 5 5 2 7 6 10 14 9 11 15 16 21 24 21 19 14 18 25 21 20 17 20 19 17 17 9
8 9 8 8 9 5 6 4 2 2 2 3 1 2 4 3 3 6 2 4 3 4 2 7 13 15 12 12 15 18 15 18 23 22 18 22 25 24 21 21 20 20 18 11 9
8 9 4 5 3 2 3 2 2 2 6 7 5 2 5 3 3 3 1 1 3 4 6 8 7 4 15 13 15 15 8 12 15 14 7 4 12 2 8 9 7 12 11 15 15
6 1 1 2 3 3 2 4 2 4 6 6 7 2 8 4 6 3 3 2 6 7 3 9 14 15 13 10 10 12 18 15 21 18 14 8 7 7 8 10 16 13 10 9 10
2 4 3 3 4 2 4 4 4 9 4 7 5 7 8 5 5 7 4 2 5 5 4 15 11 6 6 12 15 20 12 21 11 6 4 4 7 5 6 12 17 19 15 10 8
10 10 5 2 1 4 3 3 7 8 4 9 5 7 4 5 6 6 6 7 5 8 8 9 7 6 3 8 7 12 8 6 5 2 6 2 2 3 15 17 14 17 22 20 10
10 8 5 3 3 3 3 7 8 5 5 3 4 6 3 7 4 8 7 5 5 4 4 2 12 3 6 7 10 11 3 3 6 4 8 4 3 1 18 14 16 17 18 15 4
12 2 2 3 4 2 5 6 8 6 2 3 4 7 7 5 2 8 4 3 3 5 3 5 9 5 8 6 9 9 7 14 5 4 3 2 5 1 22 18 18 19 20 3 9
3 3 1 3 3 4 7 3 3 1 1 0 4 3 1 6 7 6 4 3 4 2 3 5 8 4 8 5 6 5 8 6 3 5 5 4 5 10 22 22 18 18 16 12 10
3 2 1 2 3 6 4 6 3 4 1 3 2 2 1 3 4 4 5 5 1 4 5 4 4 10 6 7 16 13 9 6 5 6 6 6 1 11 19 18 15 13 12 12 13
4 1 2 2 5 1 3 6 3 3 2 1 2 3 4 2 3 2 4 5 3 1 5 4 4 7 4 4 13 10 11 9 4 5 4 6 2 15 16 14 12 11 12 12 13
5 3 2 3 3 1 3 2 2 3 3 4 3 4 1 2 2 4 4 6 4 2 2 3 3 6 10 6 5 5 17 16 6 1 10 5 7 12 15 15 12 12 12 11 13
4 3 2 3 1 7 5 3 1 2 3 3 2 1 1 1 3 4 4 5 5 1 7 3 3 0 3 6 5 11 19 17 10 4 6 8 13 17 18 16 15 15 13 13 15
3 1 3 3 3 4 4 6 4 3 3 4 3 4 5 1 2 4 4 6 3 6 5 4 2 4 10 9 2 10 14 17 14 13 4 7 11 16 16 16 16 16 16 17 19
6 5 2 1 5 6 4 7 8 4 7 4 4 5 7 6 8 4 2 2 3 5 4 4 3 3 6 4 7 6 15 15 9 13 5 8 9 10 12 15 19 18 18 18 16
2 3 3 5 5 4 6 7 10 8 5 3 7 3 5 12 6 7 4 3 5 3 3 2 2 4 6 5 4 6 12 9 6 15 7 9 5 9 16 17 18 16 17 16 15
Wind_Direction
23 12 6 5 359 2 355 351 347 344 345 346 349 345 338 334 333 28 46 12 359 351 349 342 4 343 341 290 311 35 318 301 290 320 326 338 352 330 316 330 319 354 29 77 59
349 0 4 3 356 348 345 345 344 344 342 343 343 337 331 329 319 55 117 17 354 348 343 345 342 343 348 306 325 137 207 238 258 320 319 320 325 326 344 331 305 47 20 14 23
5 5 9 355 346 348 346 340 339 337 334 333 335 341 325 329 311 72 350 357 342 338 318 311 336 0 294 337 274 255 238 284 293 306 311 316 310 318 318 293 306 326 321 334 344
12 355 358 344 344 339 330 329 334 342 345 345 347 344 322 332 66 336 326 345 338 318 302 324 357 345 319 299 315 307 285 291 306 306 304 301 293 290 268 263 279 302 291 304 327
349 356 354 347 337 332 344 346 341 339 336 336 340 342 352 10 73 201 62 4 331 359 348 334 336 5 356 308 316 286 288 292 297 294 287 296 293 275 282 287 280 288 289 274 262
356 346 338 331 327 332 333 330 325 324 325 324 328 338 351 36 269 31 59 324 341 348 333 345 345 322 276 260 268 298 312 298 289 287 280 277 277 272 271 288 276 272 284 284 242
344 343 334 325 323 322 322 318 315 315 317 315 317 315 300 245 7 0 328 299 300 237 309 319 348 18 331 312 279 308 304 295 275 260 261 258 269 253 246 254 270 274 266 276 270
346 332 321 323 321 322 321 318 312 314 313 314 319 278 241 256 356 356 350 326 348 349 269 303 283 277 221 264 294 267 252 295 208 255 241 138 251 261 278 242 252 267 265 259 270
332 322 316 324 323 324 320 315 311 306 305 286 49 205 339 155 9 344 1 313 318 311 303 236 345 268 338 322 307 292 253 259 295 236 271 209 273 312 292 270 270 270 278 250 252
320 312 321 322 324 323 318 312 277 321 262 260 322 42 350 333 312 308 270 146 326 308 332 54 61 284 235 181 270 269 277 260 271 276 287 282 275 271 268 278 274 271 267 252 245
333 337 344 340 335 330 336 23 19 5 22 73 316 273 307 311 287 311 320 343 349 13 12 345 278 268 247 223 252 270 267 267 270 273 276 270 268 271 268 255 259 261 267 268 241
329 334 334 334 336 339 29 70 108 199 334 277 257 259 240 358 309 325 3 7 67 265 321 359 253 266 263 279 273 270 275 275 277 275 264 276 269 263 260 254 246 246 243 248 242
328 320 319 328 334 25 77 66 6 19 109 324 12 342 291 19 319 285 14 311 205 322 274 257 263 306 298 300 294 278 266 273 274 293 273 268 272 263 258 249 249 254 250 228 223
315 315 315 331 4 320 43 357 4 61 77 302 347 314 320 247 292 292 103 245 328 249 298 283 276 279 314 297 290 287 253 292 288 295 304 121 292 80 259 237 254 258 262 240 238
302 308 11 57 272 58 309 331 357 56 47 302 312 304 330 37 289 286 244 176 241 254 67 274 304 307 304 274 290 270 292 279 275 273 289 240 258 282 341 18 346 332 328 331 289
186 127 57 2 54 342 326 344 51 45 288 329 319 348 10 344 322 318 336 250 257 291 213 261 269 265 233 290 295 290 298 285 271 248 246 302 175 312 22 337 326 329 324 314 304
123 85 86 50 206 313 346 44 34 94 322 311 332 349 354 316 340 357 325 11 31 351 358 326 299 289 258 313 296 329 340 311 1 345 222 283 178 273 7 351 331 318 310 301 295
128 86 47 75 337 353 61 48 71 232 231 305 326 321 42 12 321 330 334 12 53 3 307 44 333 359 306 316 321 314 287 288 313 312 286 179 251 197 13 342 333 322 303 283 305
125 85 72 360 340 47 73 54 195 207 211 1 337 53 326 354 88 12 332 337 60 40 7 352 284 324 327 330 5 326 315 295 260 248 260 207 343 81 353 346 338 343 343 103 102
117 113 91 322 14 62 75 189 167 269 45 107 110 103 343 297 22 31 310 274 347 37 151 277 291 222 286 356 311 285 297 332 295 312 296 3 62 329 343 343 347 342 353 1 60
95 70 247 21 75 45 136 211 215 234 110 113 157 50 323 319 333 295 268 299 195 290 307 253 183 296 3 359 360 360 1 347 287 22 326 325 63 357 346 335 337 338 356 9 44
113 91 308 48 56 95 135 180 218 167 150 106 118 170 192 312 289 296 269 209 321 133 341 274 299 292 252 17 26 11 359 10 352 3 315 287 342 19 344 340 341 352 8 22 39
136 121 355 68 143 310 312 345 193 138 174 172 184 218 273 195 308 248 272 270 335 114 314 315 305 310 340 337 357 7 10 5 342 292 31 350 313 352 351 358 2 9 20 31 40
111 129 359 52 161 138 148 216 203 292 188 159 192 296 230 305 217 275 277 286 355 189 358 316 275 357 277 299 338 357 2 1 5 26 336 10 330 350 359 0 9 16 27 39 45
92 159 133 205 272 164 146 141 137 165 235 145 343 202 162 246 299 230 249 303 332 14 359 86 194 309 270 251 205 5 9 356 5 1 21 351 10 359 359 355 12 22 23 34 41
129 151 123 243 122 120 173 202 161 187 155 225 184 203 191 190 199 237 50 323 255 331 5 9 272 356 292 281 205 351 5 4 356 358 341 355 41 0 2 14 17 22 23 31 29
121 56 118 175 160 123 208 181 192 146 245 194 187 175 223 240 224 245 222 242 262 321 304 34 49 31 284 349 65 15 356 337 326 9 343 7 17 35 25 24 18 14 22 26 28